Whiting Field Naval Air Station South Airport
KNDZ : now visible

Airfield :











YOU CAN JOIN US ON...

 
LOGIN :

Register | Disclaimer

   EN    FR    IT 

 









Legend :    VFR   Marginal VFR   IFR   Intensive IFR   Very Intensive IFR
Visi :
Ceiling :
>= 8 km
>= 3000ft
5 to 8 km
1000 to 3000 ft
1500m to 5 km
500 to 1000 ft
800 to 1500m
200 to 500 ft
< 800m
< 200 ft
Symbols :   Thunderstorms  Fog  Heavy snow  Heavy precipitations  Wind > 20 kt






- Airport Elevation : 177 ft


KNDZ - Whiting Field Naval Air Station South

CURRENT METAR :
  • 270456Z 33015G23KT 10SM CLR 07/M01 A3020 RMK AO2 SLP215 T00721006 $

EXPIRED METARs :
  • 270356Z 32009KT 10SM BKN055 08/02 A3019 RMK AO2 SLP210 T00780017 $
  • 270327Z 32011G18KT 10SM FEW055 BKN080 08/04 A3017 RMK AO2 T00830039 $
  • 270256Z 31006KT 10SM FEW044 OVC055 09/05 A3016 RMK AO2 SLP202 60000 T00890050 53026 $

TAF N/A



MET'MAP, your aeronautical weather chart ! - Copyright ORBIFLY December 2007 - Disclaimer

ORBIFLY MET'MAP TEAM :

Programming & Development : Alexandra Zaïnal
Concept & original design : Baudouin d'Aumeries
Assistance for programming : Marc-Olivier Méhu
Technical & hardware support : Manuel Goepfert

Contact : metmap@orbifly.com




SOURCES & CREDITS :

   NOAA       Earth
Advisory